Wind_Speed
21 20 20 20 20 20 21 21 20 19 20 20 21 21 21 21 22 21 21 21 20 19 18 18 17 17 18 17 17 15 15 15 14 14 14 14 13 12 11 11 11 11
21 20 20 20 20 21 21 21 20 19 20 21 21 22 22 22 21 20 21 21 20 19 19 19 19 19 19 18 17 16 16 16 15 15 15 15 14 13 13 12 12 12
21 20 21 21 21 21 21 21 19 18 19 21 22 23 23 22 21 20 20 20 20 20 19 19 19 19 18 17 17 16 16 16 16 16 16 15 15 15 14 13 13 13
22 22 22 22 23 23 22 21 20 19 20 21 22 23 23 22 22 21 21 21 21 20 20 19 19 18 18 17 17 17 17 17 17 17 16 16 16 15 14 14 14 13
24 25 25 25 25 24 23 22 21 20 20 20 22 22 23 23 23 22 22 22 21 20 20 19 19 19 18 18 18 18 18 17 17 17 16 16 16 14 14 15 15 14
26 27 27 26 26 26 24 23 23 21 20 19 20 21 22 23 23 23 22 22 21 20 19 19 19 19 19 19 19 19 18 17 16 16 16 16 16 15 15 16 15 15
26 27 27 27 27 27 26 25 24 23 21 20 20 20 21 22 22 22 21 20 19 18 18 19 19 20 20 20 20 19 19 18 16 16 16 16 17 17 16 16 16 16
26 28 29 29 29 29 29 28 27 25 24 24 23 23 23 22 22 21 19 18 17 18 18 19 20 20 20 20 20 20 19 19 18 17 16 16 17 17 16 16 17 16
30 30 31 32 32 33 32 31 30 29 28 27 27 26 25 24 23 21 19 18 18 19 19 20 20 21 21 20 20 20 20 20 19 18 17 17 17 18 17 17 17 16
32 33 34 34 35 35 35 34 33 32 31 30 29 28 27 26 25 24 22 22 22 22 21 20 20 21 22 21 20 20 20 20 20 19 19 18 18 17 17 17 17 17
31 34 35 35 36 36 36 35 35 34 33 32 31 30 29 29 28 27 26 25 25 25 23 22 21 22 23 22 21 21 21 21 21 20 19 19 18 18 18 18 18 18
27 33 35 36 37 36 35 36 37 36 35 35 34 33 32 31 30 29 29 28 28 27 26 24 23 23 23 23 22 22 22 23 22 21 21 20 19 18 18 19 19 19
23 28 34 36 37 36 34 35 37 37 37 37 36 35 34 33 32 31 31 30 30 29 28 26 25 24 24 24 24 23 23 23 23 22 22 22 21 20 20 20 20 20
21 23 26 30 34 36 36 36 37 36 36 37 38 37 36 35 34 33 33 32 31 30 29 28 27 25 24 24 25 25 24 23 23 23 23 23 23 22 22 22 21 21
19 20 21 23 27 33 37 38 38 36 35 36 38 38 37 37 37 37 35 34 32 32 31 30 29 27 26 25 25 26 25 24 24 23 23 23 23 23 23 23 23 22
17 19 20 21 23 27 32 36 38 36 36 37 39 40 39 39 39 39 37 35 35 34 33 31 30 29 28 27 26 26 26 26 25 24 24 24 24 24 24 24 24 23
16 17 18 19 22 25 27 30 35 37 36 36 38 41 41 40 40 39 38 36 35 35 35 34 33 33 31 29 28 27 27 27 26 25 25 25 25 25 25 25 25 24
17 16 15 17 20 23 23 25 30 35 36 36 37 40 42 41 40 39 39 37 35 35 36 35 35 35 33 31 30 28 28 28 27 26 26 26 26 26 25 25 25 24
18 16 15 16 18 20 21 23 25 28 31 33 34 38 42 43 42 41 38 36 34 36 37 37 36 36 35 34 33 31 29 28 28 27 27 27 27 26 25 26 25 24
20 17 15 16 17 17 19 21 23 24 27 30 31 35 40 43 42 39 36 35 36 37 37 36 36 35 36 36 35 32 30 29 28 28 28 28 28 27 26 26 25 25
20 18 16 15 16 17 18 20 22 24 26 28 29 30 34 38 38 35 34 35 38 38 36 36 37 38 38 37 36 33 31 31 30 30 29 28 28 27 27 27 26 25
19 18 17 16 17 19 20 21 22 23 23 25 26 27 29 32 33 33 33 31 30 30 30 31 36 38 37 36 35 34 33 33 32 30 29 28 28 27 27 27 26 25
19 18 17 17 19 20 22 22 22 22 22 21 23 25 27 29 30 32 33 32 30 28 28 30 33 34 34 35 35 34 34 33 31 30 29 28 27 27 27 26 26 25
20 19 18 17 18 21 22 21 20 20 19 18 20 22 24 26 27 28 29 30 31 31 31 32 33 33 33 34 33 33 32 32 31 30 29 27 27 26 26 26 26 25
21 20 19 17 18 20 21 21 19 18 16 15 17 19 19 21 23 23 24 25 25 25 25 26 28 31 32 33 32 31 31 31 30 30 28 27 25 25 24 24 24 22
21 21 19 17 17 18 20 20 19 18 15 15 16 16 15 18 20 20 21 22 22 22 21 21 23 26 28 30 30 30 30 30 29 28 27 25 23 22 22 22 21 21
Wind_Direction
230 228 227 227 230 233 236 237 236 238 241 244 245 245 242 241 242 243 246 247 247 247 247 248 249 250 250 250 250 250 250 252 253 255 257 257 259 258 255 254 254 250
232 231 230 229 232 235 238 239 236 235 238 242 246 248 247 245 245 245 246 249 251 252 253 253 252 250 249 248 250 250 251 252 251 252 253 254 256 255 253 252 251 250
233 233 233 232 234 236 239 241 238 235 238 241 245 249 252 252 251 250 250 252 254 255 255 255 254 253 251 250 251 251 251 250 251 252 251 251 254 254 254 254 254 256
233 233 233 233 234 235 237 239 240 237 238 242 246 250 254 257 257 256 255 256 256 256 256 255 254 253 253 253 252 251 250 247 250 255 254 250 250 252 254 254 253 255
232 233 233 233 234 235 236 237 238 237 237 242 248 251 254 257 258 258 257 256 256 256 255 254 254 253 253 254 253 252 252 248 247 250 251 247 245 248 250 251 251 254
233 235 236 236 238 239 240 240 240 239 238 241 248 253 256 256 257 257 257 257 257 258 257 256 255 254 254 255 255 255 254 252 251 252 252 249 246 247 248 249 251 255
238 240 241 241 242 244 244 244 246 246 245 244 247 250 254 255 255 254 254 257 259 261 262 262 260 257 254 254 255 256 256 255 254 253 254 254 252 252 251 251 253 255
238 241 242 242 242 243 244 244 246 248 249 248 247 247 246 247 249 249 250 256 261 264 263 263 261 259 256 255 256 258 259 258 256 252 249 250 253 255 254 252 253 252
235 235 237 239 240 240 241 242 244 245 246 246 247 248 247 245 246 248 251 255 258 260 261 259 257 256 255 255 256 258 260 259 258 254 251 248 248 251 251 251 253 254
242 239 238 238 238 240 240 240 241 242 244 244 245 247 248 247 245 244 245 248 251 253 256 257 255 252 251 251 253 255 257 258 257 256 254 252 249 249 250 250 250 250
248 247 245 244 243 243 243 242 242 243 244 245 246 246 246 246 244 242 242 244 247 249 251 253 253 250 248 248 248 250 252 253 255 255 254 253 252 252 253 252 251 250
247 246 246 247 247 247 246 245 245 245 245 244 245 246 246 246 245 244 243 243 245 247 248 249 251 249 246 245 245 246 247 248 249 250 251 251 253 255 257 257 256 255
254 248 245 244 245 246 248 248 247 249 249 248 247 246 246 246 246 245 244 243 244 246 247 248 250 250 247 244 243 244 244 245 245 245 248 250 253 256 258 258 257 255
267 261 255 250 247 247 249 248 246 248 250 250 250 248 247 246 246 246 244 243 244 245 246 247 248 250 248 245 243 244 245 245 245 245 247 250 253 255 256 257 256 255
278 272 268 263 256 251 249 248 246 246 248 248 248 248 247 246 245 245 245 245 246 246 246 246 247 248 248 246 245 245 245 246 247 247 249 250 252 254 254 254 254 254
288 279 273 270 264 259 253 250 248 247 249 250 247 245 246 246 244 244 245 246 248 248 248 248 248 248 248 247 247 247 246 246 247 248 250 251 251 252 252 251 251 251
289 285 276 269 264 261 257 252 247 246 248 251 248 242 242 244 244 244 245 246 247 249 249 250 249 247 247 247 248 249 248 246 246 248 250 251 250 249 250 249 247 247
288 284 273 265 261 261 259 252 247 245 247 251 248 239 238 241 242 243 245 246 247 249 248 248 249 247 246 247 247 248 248 246 246 248 249 249 250 249 249 249 247 246
287 280 268 263 263 264 261 255 250 248 248 249 246 239 238 240 239 240 242 245 248 248 246 244 245 243 243 245 245 245 246 245 245 248 249 249 250 250 249 248 246 245
287 278 267 263 263 266 266 261 255 249 246 244 243 242 241 239 237 237 238 243 245 245 242 241 241 241 241 241 241 241 243 244 245 247 249 249 250 250 249 248 246 246
286 278 270 266 264 263 265 265 258 250 244 239 239 242 239 234 231 231 235 241 240 236 235 236 236 236 236 237 238 239 241 242 244 247 248 249 250 250 249 249 249 249
280 273 269 269 268 262 258 259 256 248 241 234 232 235 233 228 226 226 230 238 239 233 235 238 235 232 230 231 234 237 239 241 243 247 249 250 251 250 249 250 251 251
268 262 260 264 267 263 257 255 250 240 234 231 228 229 229 227 227 227 228 233 238 237 239 242 241 236 230 228 232 236 238 241 244 247 249 249 250 249 249 251 252 252
263 255 251 254 259 259 256 250 240 229 226 227 225 224 226 227 228 227 226 229 235 237 237 239 242 240 231 228 232 235 237 240 243 245 245 245 245 244 245 249 251 250
261 253 249 251 255 256 253 246 235 223 217 218 220 222 225 226 224 222 222 226 231 235 236 236 237 233 227 227 231 234 235 237 239 240 241 242 241 240 242 246 248 244
255 250 249 252 254 253 250 246 238 225 215 217 222 224 228 229 225 221 222 224 227 229 230 230 228 226 225 226 228 230 232 234 235 235 236 235 235 236 238 238 236 231
Height
5897 5898 5899 5900 5901 5902 5903 5904 5904 5906 5907 5907 5908 5908 5908 5909 5910 5911 5911 5912 5913 5913 5914 5914 5915 5916 5917 5917 5917 5918 5919 5919 5920 5920 5921 5921 5921 5922 5922 5923 5924 5924
5895 5897 5898 5899 5899 5900 5901 5902 5903 5905 5906 5906 5907 5907 5907 5908 5909 5910 5910 5911 5911 5912 5913 5913 5914 5916 5916 5916 5916 5917 5918 5919 5919 5920 5920 5920 5921 5921 5921 5922 5922 5923
5893 5895 5896 5897 5897 5898 5899 5901 5902 5903 5904 5905 5906 5906 5907 5907 5908 5908 5909 5909 5910 5911 5912 5913 5914 5914 5915 5915 5915 5916 5917 5917 5918 5919 5919 5919 5919 5920 5920 5920 5921 5922
5890 5892 5893 5894 5894 5895 5896 5898 5899 5900 5902 5903 5904 5905 5906 5906 5907 5907 5908 5908 5909 5910 5911 5912 5913 5913 5914 5914 5914 5915 5916 5916 5917 5918 5918 5918 5918 5919 5919 5919 5920 5921
5886 5888 5889 5891 5891 5892 5894 5895 5896 5897 5899 5901 5902 5904 5905 5906 5907 5907 5907 5908 5909 5910 5911 5911 5912 5912 5912 5912 5913 5913 5914 5914 5916 5917 5917 5916 5916 5916 5917 5917 5918 5919
5884 5885 5887 5889 5890 5891 5893 5894 5894 5895 5896 5897 5899 5901 5903 5905 5906 5907 5907 5907 5908 5909 5909 5910 5910 5910 5911 5911 5911 5911 5911 5911 5912 5913 5913 5913 5913 5914 5915 5916 5917 5917
5883 5884 5886 5887 5889 5890 5891 5892 5893 5894 5894 5895 5896 5898 5900 5902 5904 5905 5906 5906 5907 5907 5907 5908 5908 5908 5908 5909 5909 5909 5909 5910 5910 5911 5911 5911 5912 5913 5914 5915 5915 5916
5880 5882 5883 5884 5885 5887 5888 5889 5890 5892 5893 5893 5894 5894 5896 5898 5900 5902 5903 5904 5905 5905 5905 5906 5906 5906 5906 5907 5907 5907 5908 5908 5909 5910 5910 5910 5911 5912 5912 5913 5914 5915
5876 5877 5878 5879 5881 5882 5884 5886 5887 5888 5889 5890 5891 5892 5894 5896 5898 5899 5900 5901 5901 5902 5903 5903 5903 5904 5904 5904 5905 5905 5906 5906 5907 5907 5908 5909 5909 5910 5910 5911 5912 5912
5875 5875 5875 5876 5877 5879 5881 5882 5884 5884 5885 5886 5888 5889 5891 5893 5894 5895 5896 5897 5898 5899 5900 5900 5901 5901 5902 5902 5903 5903 5903 5904 5904 5905 5906 5906 5907 5908 5908 5909 5909 5910
5873 5874 5874 5875 5876 5877 5879 5881 5882 5882 5883 5884 5885 5886 5887 5888 5889 5891 5892 5894 5895 5896 5896 5897 5898 5898 5899 5899 5900 5900 5900 5901 5902 5903 5904 5904 5905 5905 5906 5906 5907 5908
5869 5870 5871 5872 5873 5875 5877 5879 5880 5881 5881 5882 5883 5883 5884 5885 5886 5888 5889 5890 5891 5892 5893 5894 5894 5895 5896 5896 5897 5897 5898 5898 5899 5900 5901 5902 5903 5903 5903 5903 5904 5904
5865 5865 5866 5868 5870 5873 5874 5875 5876 5877 5878 5879 5881 5881 5882 5883 5884 5885 5886 5886 5887 5888 5889 5890 5891 5892 5893 5893 5894 5894 5895 5895 5896 5897 5898 5899 5900 5900 5900 5901 5901 5902
5863 5863 5864 5865 5867 5869 5870 5869 5870 5872 5874 5876 5877 5879 5880 5880 5881 5882 5882 5883 5883 5884 5885 5886 5887 5889 5889 5890 5891 5891 5892 5893 5893 5894 5895 5896 5897 5897 5897 5898 5898 5899
5861 5861 5862 5863 5864 5864 5864 5864 5866 5868 5869 5870 5872 5874 5875 5876 5877 5878 5878 5879 5880 5881 5882 5883 5884 5885 5886 5886 5887 5888 5889 5890 5891 5892 5892 5893 5894 5894 5894 5894 5895 5897
5860 5859 5860 5860 5859 5859 5859 5860 5861 5863 5864 5865 5866 5868 5869 5870 5872 5873 5875 5876 5876 5877 5878 5879 5881 5882 5883 5883 5884 5885 5886 5887 5888 5888 5889 5890 5890 5891 5891 5891 5892 5894
5857 5857 5857 5856 5855 5854 5854 5855 5857 5858 5859 5860 5861 5862 5864 5866 5867 5869 5870 5872 5873 5873 5874 5876 5877 5878 5879 5880 5881 5881 5882 5883 5884 5885 5886 5887 5887 5887 5888 5888 5889 5891
5853 5853 5853 5852 5851 5850 5850 5851 5852 5852 5853 5854 5855 5856 5858 5860 5863 5865 5866 5867 5869 5869 5870 5872 5873 5874 5875 5877 5877 5878 5879 5880 5881 5882 5883 5883 5884 5884 5885 5885 5886 5888
5849 5848 5848 5848 5846 5846 5846 5847 5847 5848 5849 5849 5850 5851 5853 5855 5858 5860 5862 5864 5865 5865 5865 5866 5867 5868 5871 5872 5873 5874 5875 5877 5878 5879 5880 5881 5881 5882 5882 5883 5883 5885
5845 5844 5844 5843 5843 5842 5842 5843 5843 5844 5844 5845 5846 5847 5848 5849 5852 5856 5858 5860 5859 5859 5860 5861 5862 5864 5865 5867 5868 5870 5872 5873 5875 5876 5877 5878 5879 5880 5880 5880 5881 5882
5842 5840 5840 5840 5840 5839 5839 5840 5840 5840 5840 5840 5842 5843 5843 5844 5848 5851 5854 5853 5852 5851 5853 5855 5856 5858 5859 5861 5864 5867 5869 5870 5871 5872 5874 5875 5876 5878 5879 5879 5879 5879
5838 5837 5837 5837 5837 5837 5836 5837 5837 5837 5837 5838 5839 5840 5840 5841 5844 5847 5848 5848 5846 5846 5849 5850 5849 5850 5853 5857 5860 5863 5864 5866 5868 5869 5871 5872 5874 5875 5876 5877 5877 5877
5835 5834 5834 5835 5835 5834 5834 5834 5834 5835 5835 5835 5836 5837 5838 5839 5841 5842 5844 5844 5843 5845 5847 5847 5846 5847 5850 5853 5856 5858 5860 5863 5865 5867 5868 5870 5871 5872 5873 5874 5875 5875
5832 5831 5831 5832 5832 5831 5832 5832 5832 5832 5832 5833 5834 5834 5835 5836 5837 5838 5839 5840 5841 5842 5844 5844 5844 5845 5848 5850 5852 5855 5857 5860 5862 5864 5865 5866 5867 5868 5870 5871 5872 5872
5829 5829 5829 5829 5829 5829 5830 5830 5830 5830 5830 5831 5831 5832 5832 5832 5833 5834 5835 5837 5838 5839 5840 5840 5841 5842 5844 5847 5849 5852 5854 5856 5858 5860 5861 5863 5864 5865 5867 5868 5869 5870
5825 5826 5826 5826 5827 5827 5828 5829 5829 5828 5828 5828 5829 5830 5829 5829 5830 5831 5832 5833 5834 5836 5836 5837 5838 5840 5842 5844 5846 5848 5850 5852 5854 5857 5858 5860 5861 5862 5864 5865 5866 5867